Location: Newark
(43.0000°N, 1.6781°W)
Time: 15:59:35
(UTC+00:00)

Explorer 7 - All Passes

Search period start: 19 April 2021 00:00
Search period end: 29 April 2021 00:00
Orbit: 484 x 677 km, 50.3° (Epoch: 19 April)

Date Brightness Start Highest point End Pass type
(mag) Time Alt. Az. Time Alt. Az. Time Alt. Az.
19 Apr - 01:27:36 10° WNW 01:32:06 61° NNE 01:36:51 10° ESE night (unlit)
19 Apr - 03:08:19 10° WNW 03:12:33 35° SW 03:16:57 10° SSE visible
19 Apr - 18:50:51 10° S 18:53:26 17° SE 18:56:06 10° E daylight
19 Apr - 20:29:21 10° WSW 20:33:23 88° NW 20:37:42 10° ENE visible
19 Apr - 22:10:26 10° WNW 22:14:18 34° N 22:18:25 10° ENE visible
19 Apr - 23:51:35 10° NW 23:55:37 35° N 23:59:54 10° ENE visible
20 Apr - 01:32:03 10° WNW 01:36:37 83° NNE 01:41:24 10° ESE night (unlit)
20 Apr - 03:13:09 10° W 03:16:51 23° SW 03:20:38 10° S visible
20 Apr - 18:54:18 10° SSW 18:57:38 27° SE 19:01:09 10° ENE daylight
20 Apr - 20:33:53 10° WSW 20:37:53 62° NNW 20:42:10 10° ENE visible
20 Apr - 22:15:10 10° WNW 22:18:58 31° N 22:22:59 10° ENE visible
20 Apr - 23:56:06 10° NW 00:00:16 40° NNE 00:04:40 10° E visible
21 Apr - 01:36:31 10° WNW 01:41:04 70° SSW 01:45:48 10° SE night (unlit)
21 Apr - 03:18:27 10° W 03:21:04 15° SW 03:23:43 10° SSW night (unlit)
21 Apr - 18:58:14 10° SSW 19:01:56 43° SE 19:05:52 10° ENE daylight
21 Apr - 20:38:31 10° W 20:42:26 46° NNW 20:46:37 10° NE visible
21 Apr - 22:19:52 10° WNW 22:23:39 31° N 22:27:39 10° ENE visible
22 Apr - 00:00:33 10° NW 00:04:51 50° NNE 00:09:23 10° E visible
22 Apr - 01:41:05 10° WNW 01:45:27 47° SW 01:50:01 10° SE night (unlit)
22 Apr - 17:25:31 10° SE 17:26:34 11° SE 17:27:37 10° ESE daylight
22 Apr - 19:02:25 10° SW 19:06:18 68° SE 19:10:26 10° ENE daylight
22 Apr - 20:43:14 10° W 20:47:02 37° NNW 20:51:05 10° NE visible
22 Apr - 22:24:29 10° WNW 22:28:19 32° N 22:32:22 10° ENE visible
23 Apr - 00:05:00 10° WNW 00:09:23 65° NNE 00:14:02 10° ESE visible
23 Apr - 01:45:45 10° WNW 01:49:46 31° SW 01:53:57 10° SSE night (unlit)
23 Apr - 17:28:02 10° S 17:30:43 18° SE 17:33:30 10° E daylight
23 Apr - 19:06:50 10° WSW 19:10:44 80° NNW 19:14:55 10° ENE daylight
23 Apr - 20:47:58 10° WNW 20:51:40 32° N 20:55:36 10° NE visible
23 Apr - 22:29:02 10° NW 22:32:57 35° NNE 22:37:07 10° E visible
24 Apr - 00:09:27 10° WNW 00:13:51 89° N 00:18:33 10° ESE visible
24 Apr - 01:50:41 10° W 01:54:02 20° SW 01:57:29 10° S night (unlit)
24 Apr - 17:31:36 10° SSW 17:34:57 29° SE 17:38:28 10° ENE daylight
24 Apr - 19:11:22 10° WSW 19:15:15 56° NNW 19:19:21 10° NE daylight
24 Apr - 20:52:41 10° WNW 20:56:20 30° N 21:00:11 10° ENE visible
24 Apr - 22:33:31 10° NW 22:37:34 41° NNE 22:41:52 10° E visible
25 Apr - 00:13:55 10° WNW 00:18:17 63° SW 00:22:54 10° SE visible
25 Apr - 01:56:16 10° WSW 01:58:14 13° SW 02:00:15 10° SSW night (unlit)
25 Apr - 17:35:35 10° SW 17:39:16 47° SE 17:43:08 10° ENE daylight
25 Apr - 19:16:02 10° W 19:19:48 42° NNW 19:23:47 10° NE daylight
25 Apr - 20:57:22 10° WNW 21:01:00 30° N 21:04:51 10° ENE visible
25 Apr - 22:37:57 10° NW 22:42:08 52° NNE 22:46:34 10° E visible
26 Apr - 00:18:29 10° WNW 00:22:39 41° SW 00:27:01 10° SSE visible
26 Apr - 16:02:18 10° SSE 16:03:49 12° SE 16:05:22 10° ESE daylight
26 Apr - 17:39:49 10° SW 17:43:38 76° SSE 17:47:39 10° ENE daylight
26 Apr - 19:20:45 10° W 19:24:24 35° NNW 19:28:15 10° NE daylight
26 Apr - 21:01:57 10° NW 21:05:39 31° N 21:09:34 10° ENE visible
26 Apr - 22:42:23 10° WNW 22:46:38 70° NNE 22:51:11 10° ESE visible
27 Apr - 00:23:13 10° W 00:26:57 27° SW 00:30:51 10° SSE visible
27 Apr - 16:05:11 10° S 16:08:00 20° SE 16:10:54 10° E daylight
27 Apr - 17:44:15 10° WSW 17:48:05 73° NNW 17:52:07 10° ENE daylight
27 Apr - 19:25:29 10° WNW 19:29:02 30° N 19:32:47 10° NE visible
27 Apr - 21:06:28 10° NW 21:10:16 35° NNE 21:14:19 10° E visible
27 Apr - 22:46:49 10° WNW 22:51:06 83° SSW 22:55:39 10° SE visible
28 Apr - 00:28:16 10° W 00:31:12 17° SW 00:34:14 10° S night (unlit)
28 Apr - 16:08:52 10° SSW 16:12:15 32° SE 16:15:46 10° ENE daylight
28 Apr - 17:48:50 10° W 17:52:34 51° NNW 17:56:32 10° NE daylight
28 Apr - 19:30:11 10° WNW 19:33:41 29° N 19:37:22 10° ENE visible
28 Apr - 21:10:55 10° NW 21:14:51 42° NNE 21:19:03 10° E visible
28 Apr - 22:51:18 10° WNW 22:55:30 56° SW 22:59:57 10° SE visible
